owner,sensor,date,latitude,longitude,vertical_datum,sea_water_practical_salinity,qcFlag 
TCOON,ioos:station:TCOON:042:1,2015-01-05T07:30:00Z,27.8888,-97.5696,0.0,28.8,1111122 
TCOON,ioos:station:TCOON:042:1,2015-01-05T08:00:00Z,27.8888,-97.5696,0.0,29.3,1111122 
TCOON,ioos:station:TCOON:042:1,2015-01-05T08:30:00Z,27.8888,-97.5696,0.0,28.7,1111122 
TCOON,ioos:station:TCOON:042:1,2015-01-05T09:30:00Z,27.8888,-97.5696,0.0,28.8,1111122 
TCOON,ioos:station:TCOON:042:1,2015-01-05T10:30:00Z,27.8888,-97.5696,0.0,27.6,1111122 
TCOON,ioos:station:TCOON:042:1,2015-01-05T11:30:00Z,27.8888,-97.5696,0.0,27.3,1111122 
TCOON,ioos:station:TCOON:042:1,2015-01-05T12:30:00Z,27.8888,-97.5696,0.0,28.3,1111122 
TCOON,ioos:station:TCOON:042:1,2015-01-05T13:30:00Z,27.8888,-97.5696,0.0,25.9,1111122 
TCOON,ioos:station:TCOON:042:1,2015-01-05T14:30:00Z,27.8888,-97.5696,0.0,29.0,1111122 
TCOON,ioos:station:TCOON:042:1,2015-01-05T15:30:00Z,27.8888,-97.5696,0.0,28.3,1111122 
TCOON,ioos:station:TCOON:042:1,2015-01-05T16:30:00Z,27.8888,-97.5696,0.0,28.7,1111122 
TCOON,ioos:station:TCOON:042:1,2015-01-05T17:30:00Z,27.8888,-97.5696,0.0,28.9,1111122 
TCOON,ioos:station:TCOON:042:1,2015-01-05T18:30:00Z,27.8888,-97.5696,0.0,28.3,1111122 
TCOON,ioos:station:TCOON:042:1,2015-01-05T19:30:00Z,27.8888,-97.5696,0.0,29.0,1111122 
TCOON,ioos:station:TCOON:042:1,2015-01-05T20:30:00Z,27.8888,-97.5696,0.0,29.4,1111122 
TCOON,ioos:station:TCOON:042:1,2015-01-05T21:30:00Z,27.8888,-97.5696,0.0,29.4,1111122 
TCOON,ioos:station:TCOON:042:1,2015-01-05T22:30:00Z,27.8888,-97.5696,0.0,29.4,1111122 
TCOON,ioos:station:TCOON:042:1,2015-01-05T23:30:00Z,27.8888,-97.5696,0.0,29.5,1111122 
TCOON,ioos:station:TCOON:042:1,2015-01-06T00:30:00Z,27.8888,-97.5696,0.0,29.4,1111122 
TCOON,ioos:station:TCOON:042:1,2015-01-06T01:30:00Z,27.8888,-97.5696,0.0,29.3,1111122 
TCOON,ioos:station:TCOON:042:1,2015-01-06T02:30:00Z,27.8888,-97.5696,0.0,28.8,1111122 
TCOON,ioos:station:TCOON:042:1,2015-01-06T03:30:00Z,27.8888,-97.5696,0.0,28.0,1111122 
TCOON,ioos:station:TCOON:042:1,2015-01-06T04:30:00Z,27.8888,-97.5696,0.0,27.7,1111122 
TCOON,ioos:station:TCOON:042:1,2015-01-06T05:30:00Z,27.8888,-97.5696,0.0,28.3,1111122 
TCOON,ioos:station:TCOON:042:1,2015-01-06T06:30:00Z,27.8888,-97.5696,0.0,28.5,1111122 
TCOON,ioos:station:TCOON:042:1,2015-01-06T07:30:00Z,27.8888,-97.5696,0.0,28.9,1111122 
TCOON,ioos:station:TCOON:042:1,2015-01-06T08:30:00Z,27.8888,-97.5696,0.0,29.1,1111122 
TCOON,ioos:station:TCOON:042:1,2015-01-06T09:30:00Z,27.8888,-97.5696,0.0,29.3,1111122 
TCOON,ioos:station:TCOON:042:1,2015-01-06T10:30:00Z,27.8888,-97.5696,0.0,29.3,1111122 
TCOON,ioos:station:TCOON:042:1,2015-01-06T11:30:00Z,27.8888,-97.5696,0.0,28.7,1111122 
TCOON,ioos:station:TCOON:042:1,2015-01-06T12:30:00Z,27.8888,-97.5696,0.0,28.4,1111122 
TCOON,ioos:station:TCOON:042:1,2015-01-06T13:30:00Z,27.8888,-97.5696,0.0,28.2,1111122 
TCOON,ioos:station:TCOON:042:1,2015-01-06T14:30:00Z,27.8888,-97.5696,0.0,13.7,1111122 
TCOON,ioos:station:TCOON:042:1,2015-01-06T15:30:00Z,27.8888,-97.5696,0.0,17.4,1111122 
TCOON,ioos:station:TCOON:042:1,2015-01-06T16:30:00Z,27.8888,-97.5696,0.0,15.3,1111122 
TCOON,ioos:station:TCOON:042:1,2015-01-06T17:30:00Z,27.8888,-97.5696,0.0,23.5,1111122 
TCOON,ioos:station:TCOON:042:1,2015-01-06T18:30:00Z,27.8888,-97.5696,0.0,16.3,1111122 
TCOON,ioos:station:TCOON:042:1,2015-01-06T19:30:00Z,27.8888,-97.5696,0.0,15.0,1111122 
TCOON,ioos:station:TCOON:042:1,2015-01-06T20:30:00Z,27.8888,-97.5696,0.0,29.0,1111122 
TCOON,ioos:station:TCOON:042:1,2015-01-06T21:30:00Z,27.8888,-97.5696,0.0,28.9,1111122 
TCOON,ioos:station:TCOON:042:1,2015-01-06T22:30:00Z,27.8888,-97.5696,0.0,32.4,1111122 
TCOON,ioos:station:TCOON:042:1,2015-01-06T23:30:00Z,27.8888,-97.5696,0.0,31.9,1111122 
TCOON,ioos:station:TCOON:042:1,2015-01-07T00:30:00Z,27.8888,-97.5696,0.0,29.4,1111122 
TCOON,ioos:station:TCOON:042:1,2015-01-07T01:30:00Z,27.8888,-97.5696,0.0,29.4,1111122 
TCOON,ioos:station:TCOON:042:1,2015-01-07T03:00:00Z,27.8888,-97.5696,0.0,29.4,1111122 
TCOON,ioos:station:TCOON:042:1,2015-01-07T03:30:00Z,27.8888,-97.5696,0.0,29.4,1111122 
TCOON,ioos:station:TCOON:042:1,2015-01-07T04:30:00Z,27.8888,-97.5696,0.0,29.4,1111122 
TCOON,ioos:station:TCOON:042:1,2015-01-07T05:30:00Z,27.8888,-97.5696,0.0,29.4,1111122 
TCOON,ioos:station:TCOON:042:1,2015-01-07T06:30:00Z,27.8888,-97.5696,0.0,29.3,1111122 
TCOON,ioos:station:TCOON:042:1,2015-01-07T07:30:00Z,27.8888,-97.5696,0.0,29.4,1111122 
TCOON,ioos:station:TCOON:042:1,2015-01-07T08:30:00Z,27.8888,-97.5696,0.0,29.7,1111122 
TCOON,ioos:station:TCOON:042:1,2015-01-07T09:30:00Z,27.8888,-97.5696,0.0,30.1,1111122 
TCOON,ioos:station:TCOON:042:1,2015-01-07T10:30:00Z,27.8888,-97.5696,0.0,30.3,1111122 
TCOON,ioos:station:TCOON:042:1,2015-01-07T11:30:00Z,27.8888,-97.5696,0.0,30.6,1111122 
TCOON,ioos:station:TCOON:042:1,2015-01-07T12:30:00Z,27.8888,-97.5696,0.0,30.7,1111122 
TCOON,ioos:station:TCOON:042:1,2015-01-07T13:30:00Z,27.8888,-97.5696,0.0,30.7,1111122 
TCOON,ioos:station:TCOON:042:1,2015-01-07T14:30:00Z,27.8888,-97.5696,0.0,30.7,1111122 
TCOON,ioos:station:TCOON:042:1,2015-01-07T15:30:00Z,27.8888,-97.5696,0.0,30.6,1111122 
TCOON,ioos:station:TCOON:042:1,2015-01-07T16:30:00Z,27.8888,-97.5696,0.0,30.5,1111122 
TCOON,ioos:station:TCOON:042:1,2015-01-07T17:30:00Z,27.8888,-97.5696,0.0,30.5,1111122 
TCOON,ioos:station:TCOON:042:1,2015-01-07T18:30:00Z,27.8888,-97.5696,0.0,30.4,1111122 
TCOON,ioos:station:TCOON:042:1,2015-01-07T19:30:00Z,27.8888,-97.5696,0.0,30.3,1111122 
TCOON,ioos:station:TCOON:042:1,2015-01-07T20:30:00Z,27.8888,-97.5696,0.0,30.4,1111122 
TCOON,ioos:station:TCOON:042:1,2015-01-07T21:30:00Z,27.8888,-97.5696,0.0,30.3,1111122 
TCOON,ioos:station:TCOON:042:1,2015-01-07T22:30:00Z,27.8888,-97.5696,0.0,29.3,1111122 
TCOON,ioos:station:TCOON:042:1,2015-01-07T23:30:00Z,27.8888,-97.5696,0.0,29.0,1111122 
TCOON,ioos:station:TCOON:042:1,2015-01-08T00:30:00Z,27.8888,-97.5696,0.0,28.9,1111122 
TCOON,ioos:station:TCOON:042:1,2015-01-08T01:30:00Z,27.8888,-97.5696,0.0,28.9,1111122 
TCOON,ioos:station:TCOON:042:1,2015-01-08T02:30:00Z,27.8888,-97.5696,0.0,29.2,1111122 
TCOON,ioos:station:TCOON:042:1,2015-01-08T03:30:00Z,27.8888,-97.5696,0.0,28.3,1111122 
TCOON,ioos:station:TCOON:042:1,2015-01-08T04:30:00Z,27.8888,-97.5696,0.0,30.1,1111122 
TCOON,ioos:station:TCOON:042:1,2015-01-08T05:30:00Z,27.8888,-97.5696,0.0,30.8,1111122 
TCOON,ioos:station:TCOON:042:1,2015-01-08T07:00:00Z,27.8888,-97.5696,0.0,31.0,1111122 
TCOON,ioos:station:TCOON:042:1,2015-01-08T07:30:00Z,27.8888,-97.5696,0.0,31.0,1111122 
TCOON,ioos:station:TCOON:042:1,2015-01-08T08:30:00Z,27.8888,-97.5696,0.0,30.0,1111122 
TCOON,ioos:station:TCOON:042:1,2015-01-08T09:30:00Z,27.8888,-97.5696,0.0,28.8,1111122 
TCOON,ioos:station:TCOON:042:1,2015-01-08T10:30:00Z,27.8888,-97.5696,0.0,30.0,1111122 
TCOON,ioos:station:TCOON:042:1,2015-01-08T11:30:00Z,27.8888,-97.5696,0.0,19.0,1111122 
TCOON,ioos:station:TCOON:042:1,2015-01-08T12:30:00Z,27.8888,-97.5696,0.0,24.3,1111122 
TCOON,ioos:station:TCOON:042:1,2015-01-08T13:30:00Z,27.8888,-97.5696,0.0,20.4,1111122 
TCOON,ioos:station:TCOON:042:1,2015-01-08T14:30:00Z,27.8888,-97.5696,0.0,20.3,1111122 
TCOON,ioos:station:TCOON:042:1,2015-01-08T15:30:00Z,27.8888,-97.5696,0.0,19.7,1111122 
TCOON,ioos:station:TCOON:042:1,2015-01-08T16:30:00Z,27.8888,-97.5696,0.0,16.0,1111122 
TCOON,ioos:station:TCOON:042:1,2015-01-08T17:30:00Z,27.8888,-97.5696,0.0,17.6,1111122 
TCOON,ioos:station:TCOON:042:1,2015-01-08T18:30:00Z,27.8888,-97.5696,0.0,18.4,1111122 
TCOON,ioos:station:TCOON:042:1,2015-01-08T19:30:00Z,27.8888,-97.5696,0.0,25.8,1111122 
TCOON,ioos:station:TCOON:042:1,2015-01-08T20:30:00Z,27.8888,-97.5696,0.0,16.1,1111122 
TCOON,ioos:station:TCOON:042:1,2015-01-08T21:30:00Z,27.8888,-97.5696,0.0,16.5,1111122 
TCOON,ioos:station:TCOON:042:1,2015-01-08T22:30:00Z,27.8888,-97.5696,0.0,27.8,1111122 
TCOON,ioos:station:TCOON:042:1,2015-01-08T23:30:00Z,27.8888,-97.5696,0.0,18.0,1111122 
TCOON,ioos:station:TCOON:042:1,2015-01-09T00:30:00Z,27.8888,-97.5696,0.0,17.0,1111122 
TCOON,ioos:station:TCOON:042:1,2015-01-09T01:30:00Z,27.8888,-97.5696,0.0,19.9,1111122 
TCOON,ioos:station:TCOON:042:1,2015-01-09T02:30:00Z,27.8888,-97.5696,0.0,25.6,1111122 
TCOON,ioos:station:TCOON:042:1,2015-01-09T03:30:00Z,27.8888,-97.5696,0.0,29.5,1111122 
TCOON,ioos:station:TCOON:042:1,2015-01-09T04:30:00Z,27.8888,-97.5696,0.0,30.6,1111122 
TCOON,ioos:station:TCOON:042:1,2015-01-09T05:30:00Z,27.8888,-97.5696,0.0,30.5,1111122 
TCOON,ioos:station:TCOON:042:1,2015-01-09T07:00:00Z,27.8888,-97.5696,0.0,30.6,1111122 
TCOON,ioos:station:TCOON:042:1,2015-01-09T07:30:00Z,27.8888,-97.5696,0.0,30.5,1111122 
TCOON,ioos:station:TCOON:042:1,2015-01-09T08:30:00Z,27.8888,-97.5696,0.0,36.0,1111122 
TCOON,ioos:station:TCOON:042:1,2015-01-09T09:30:00Z,27.8888,-97.5696,0.0,36.7,1111122 
TCOON,ioos:station:TCOON:042:1,2015-01-09T10:30:00Z,27.8888,-97.5696,0.0,31.8,1111122 
TCOON,ioos:station:TCOON:042:1,2015-01-09T11:30:00Z,27.8888,-97.5696,0.0,30.5,1111122 
TCOON,ioos:station:TCOON:042:1,2015-01-09T12:30:00Z,27.8888,-97.5696,0.0,31.7,1111122 
TCOON,ioos:station:TCOON:042:1,2015-01-09T13:30:00Z,27.8888,-97.5696,0.0,31.1,1111122 
TCOON,ioos:station:TCOON:042:1,2015-01-09T14:30:00Z,27.8888,-97.5696,0.0,30.6,1111122 
TCOON,ioos:station:TCOON:042:1,2015-01-09T15:30:00Z,27.8888,-97.5696,0.0,30.2,1111122 
TCOON,ioos:station:TCOON:042:1,2015-01-09T16:30:00Z,27.8888,-97.5696,0.0,18.8,1111122 
TCOON,ioos:station:TCOON:042:1,2015-01-09T17:30:00Z,27.8888,-97.5696,0.0,18.4,1111122 
TCOON,ioos:station:TCOON:042:1,2015-01-09T18:30:00Z,27.8888,-97.5696,0.0,28.2,1111122 
TCOON,ioos:station:TCOON:042:1,2015-01-09T19:30:00Z,27.8888,-97.5696,0.0,20.8,1111122 
TCOON,ioos:station:TCOON:042:1,2015-01-09T20:30:00Z,27.8888,-97.5696,0.0,19.8,1111122 
TCOON,ioos:station:TCOON:042:1,2015-01-09T21:30:00Z,27.8888,-97.5696,0.0,16.3,1111122 
TCOON,ioos:station:TCOON:042:1,2015-01-09T22:30:00Z,27.8888,-97.5696,0.0,26.8,1111122 
TCOON,ioos:station:TCOON:042:1,2015-01-09T23:30:00Z,27.8888,-97.5696,0.0,18.7,1111122 
TCOON,ioos:station:TCOON:042:1,2015-01-10T00:30:00Z,27.8888,-97.5696,0.0,22.9,1111122 
TCOON,ioos:station:TCOON:042:1,2015-01-10T01:30:00Z,27.8888,-97.5696,0.0,21.4,1111122 
TCOON,ioos:station:TCOON:042:1,2015-01-10T02:30:00Z,27.8888,-97.5696,0.0,24.1,1111122 
TCOON,ioos:station:TCOON:042:1,2015-01-10T03:30:00Z,27.8888,-97.5696,0.0,20.6,1111122 
TCOON,ioos:station:TCOON:042:1,2015-01-10T04:30:00Z,27.8888,-97.5696,0.0,27.2,1111122 
TCOON,ioos:station:TCOON:042:1,2015-01-10T05:30:00Z,27.8888,-97.5696,0.0,20.2,1111122 
TCOON,ioos:station:TCOON:042:1,2015-01-10T06:30:00Z,27.8888,-97.5696,0.0,19.2,1111122 
TCOON,ioos:station:TCOON:042:1,2015-01-10T07:30:00Z,27.8888,-97.5696,0.0,25.6,1111122 
TCOON,ioos:station:TCOON:042:1,2015-01-10T08:30:00Z,27.8888,-97.5696,0.0,20.7,1111122 
TCOON,ioos:station:TCOON:042:1,2015-01-10T09:30:00Z,27.8888,-97.5696,0.0,19.7,1111122 
TCOON,ioos:station:TCOON:042:1,2015-01-10T10:30:00Z,27.8888,-97.5696,0.0,18.2,1111122 
TCOON,ioos:station:TCOON:042:1,2015-01-10T11:30:00Z,27.8888,-97.5696,0.0,16.2,1111122 
TCOON,ioos:station:TCOON:042:1,2015-01-10T12:30:00Z,27.8888,-97.5696,0.0,13.1,1111122 
TCOON,ioos:station:TCOON:042:1,2015-01-10T13:30:00Z,27.8888,-97.5696,0.0,13.9,1111122 
TCOON,ioos:station:TCOON:042:1,2015-01-10T14:30:00Z,27.8888,-97.5696,0.0,13.4,1111122 
TCOON,ioos:station:TCOON:042:1,2015-01-10T15:30:00Z,27.8888,-97.5696,0.0,13.5,1111122 
TCOON,ioos:station:TCOON:042:1,2015-01-10T16:30:00Z,27.8888,-97.5696,0.0,12.9,1111122 
TCOON,ioos:station:TCOON:042:1,2015-01-10T17:30:00Z,27.8888,-97.5696,0.0,23.4,1111122 
TCOON,ioos:station:TCOON:042:1,2015-01-10T18:30:00Z,27.8888,-97.5696,0.0,14.4,1111122 
TCOON,ioos:station:TCOON:042:1,2015-01-10T19:30:00Z,27.8888,-97.5696,0.0,13.0,1111122 
TCOON,ioos:station:TCOON:042:1,2015-01-10T20:30:00Z,27.8888,-97.5696,0.0,14.5,1111122 
TCOON,ioos:station:TCOON:042:1,2015-01-10T21:30:00Z,27.8888,-97.5696,0.0,13.7,1111122 
TCOON,ioos:station:TCOON:042:1,2015-01-10T22:30:00Z,27.8888,-97.5696,0.0,14.6,1111122 
TCOON,ioos:station:TCOON:042:1,2015-01-10T23:30:00Z,27.8888,-97.5696,0.0,14.5,1111122 
TCOON,ioos:station:TCOON:042:1,2015-01-11T00:30:00Z,27.8888,-97.5696,0.0,12.4,1111122 
TCOON,ioos:station:TCOON:042:1,2015-01-11T01:30:00Z,27.8888,-97.5696,0.0,11.0,1111122 
TCOON,ioos:station:TCOON:042:1,2015-01-11T02:30:00Z,27.8888,-97.5696,0.0,11.1,1111122 
TCOON,ioos:station:TCOON:042:1,2015-01-11T03:30:00Z,27.8888,-97.5696,0.0,12.5,1111122 
TCOON,ioos:station:TCOON:042:1,2015-01-11T04:30:00Z,27.8888,-97.5696,0.0,11.0,1111122 
TCOON,ioos:station:TCOON:042:1,2015-01-11T05:30:00Z,27.8888,-97.5696,0.0,12.1,1111122 
TCOON,ioos:station:TCOON:042:1,2015-01-11T06:30:00Z,27.8888,-97.5696,0.0,13.4,1111122 
TCOON,ioos:station:TCOON:042:1,2015-01-11T07:30:00Z,27.8888,-97.5696,0.0,13.3,1111122 
TCOON,ioos:station:TCOON:042:1,2015-01-11T08:30:00Z,27.8888,-97.5696,0.0,11.1,1111122 
TCOON,ioos:station:TCOON:042:1,2015-01-11T09:30:00Z,27.8888,-97.5696,0.0,12.7,1111122 
TCOON,ioos:station:TCOON:042:1,2015-01-11T10:30:00Z,27.8888,-97.5696,0.0,10.0,1111122 
TCOON,ioos:station:TCOON:042:1,2015-01-11T11:30:00Z,27.8888,-97.5696,0.0,12.3,1111122 
TCOON,ioos:station:TCOON:042:1,2015-01-11T12:30:00Z,27.8888,-97.5696,0.0,11.3,1111122 
TCOON,ioos:station:TCOON:042:1,2015-01-11T13:30:00Z,27.8888,-97.5696,0.0,9.4,1111122 
TCOON,ioos:station:TCOON:042:1,2015-01-11T14:30:00Z,27.8888,-97.5696,0.0,9.8,1111122 
TCOON,ioos:station:TCOON:042:1,2015-01-11T15:30:00Z,27.8888,-97.5696,0.0,18.1,1111122 
TCOON,ioos:station:TCOON:042:1,2015-01-11T16:30:00Z,27.8888,-97.5696,0.0,17.4,1111122 
TCOON,ioos:station:TCOON:042:1,2015-01-11T17:30:00Z,27.8888,-97.5696,0.0,19.7,1111122 
TCOON,ioos:station:TCOON:042:1,2015-01-11T18:30:00Z,27.8888,-97.5696,0.0,19.3,1111122 
TCOON,ioos:station:TCOON:042:1,2015-01-11T19:30:00Z,27.8888,-97.5696,0.0,10.9,1111122 
TCOON,ioos:station:TCOON:042:1,2015-01-11T20:30:00Z,27.8888,-97.5696,0.0,22.1,1111122 
TCOON,ioos:station:TCOON:042:1,2015-01-11T21:30:00Z,27.8888,-97.5696,0.0,21.8,1111122 
TCOON,ioos:station:TCOON:042:1,2015-01-11T22:30:00Z,27.8888,-97.5696,0.0,22.2,1111122 
TCOON,ioos:station:TCOON:042:1,2015-01-11T23:30:00Z,27.8888,-97.5696,0.0,21.9,1111122 
TCOON,ioos:station:TCOON:042:1,2015-01-12T00:30:00Z,27.8888,-97.5696,0.0,22.2,1111122 
TCOON,ioos:station:TCOON:042:1,2015-01-12T01:30:00Z,27.8888,-97.5696,0.0,22.4,1111122 
TCOON,ioos:station:TCOON:042:1,2015-01-12T02:30:00Z,27.8888,-97.5696,0.0,21.9,1111122 
TCOON,ioos:station:TCOON:042:1,2015-01-12T03:30:00Z,27.8888,-97.5696,0.0,21.9,1111122 
TCOON,ioos:station:TCOON:042:1,2015-01-12T04:30:00Z,27.8888,-97.5696,0.0,21.3,1111122 
TCOON,ioos:station:TCOON:042:1,2015-01-12T05:30:00Z,27.8888,-97.5696,0.0,27.6,1111122 
TCOON,ioos:station:TCOON:042:1,2015-01-12T06:30:00Z,27.8888,-97.5696,0.0,31.1,1111122 
TCOON,ioos:station:TCOON:042:1,2015-01-12T07:30:00Z,27.8888,-97.5696,0.0,31.6,1111122 
TCOON,ioos:station:TCOON:042:1,2015-01-12T08:30:00Z,27.8888,-97.5696,0.0,31.6,1111122 
TCOON,ioos:station:TCOON:042:1,2015-01-12T09:30:00Z,27.8888,-97.5696,0.0,31.8,1111122 
TCOON,ioos:station:TCOON:042:1,2015-01-12T10:30:00Z,27.8888,-97.5696,0.0,31.9,1111122 
TCOON,ioos:station:TCOON:042:1,2015-01-12T11:30:00Z,27.8888,-97.5696,0.0,31.7,1111122 
TCOON,ioos:station:TCOON:042:1,2015-01-12T12:30:00Z,27.8888,-97.5696,0.0,31.5,1111122 
TCOON,ioos:station:TCOON:042:1,2015-01-12T13:30:00Z,27.8888,-97.5696,0.0,31.3,1111122 
TCOON,ioos:station:TCOON:042:1,2015-01-12T14:30:00Z,27.8888,-97.5696,0.0,31.4,1111122 
TCOON,ioos:station:TCOON:042:1,2015-01-12T15:30:00Z,27.8888,-97.5696,0.0,31.5,1111122 
TCOON,ioos:station:TCOON:042:1,2015-01-12T16:30:00Z,27.8888,-97.5696,0.0,31.4,1111122 
TCOON,ioos:station:TCOON:042:1,2015-01-12T17:30:00Z,27.8888,-97.5696,0.0,31.3,1111122 
TCOON,ioos:station:TCOON:042:1,2015-01-12T18:30:00Z,27.8888,-97.5696,0.0,30.8,1111122 
TCOON,ioos:station:TCOON:042:1,2015-01-12T19:30:00Z,27.8888,-97.5696,0.0,30.3,1111122 
TCOON,ioos:station:TCOON:042:1,2015-01-12T20:30:00Z,27.8888,-97.5696,0.0,29.8,1111122 
TCOON,ioos:station:TCOON:042:1,2015-01-12T21:30:00Z,27.8888,-97.5696,0.0,29.8,1111122 
TCOON,ioos:station:TCOON:042:1,2015-01-12T22:30:00Z,27.8888,-97.5696,0.0,29.7,1111122 
TCOON,ioos:station:TCOON:042:1,2015-01-12T23:30:00Z,27.8888,-97.5696,0.0,29.7,1111122 
TCOON,ioos:station:TCOON:042:1,2015-01-13T00:30:00Z,27.8888,-97.5696,0.0,28.7,1111122 
TCOON,ioos:station:TCOON:042:1,2015-01-13T01:30:00Z,27.8888,-97.5696,0.0,28.3,1111122 
TCOON,ioos:station:TCOON:042:1,2015-01-13T02:30:00Z,27.8888,-97.5696,0.0,29.4,1111122 
TCOON,ioos:station:TCOON:042:1,2015-01-13T03:30:00Z,27.8888,-97.5696,0.0,28.9,1111122 
TCOON,ioos:station:TCOON:042:1,2015-01-13T04:30:00Z,27.8888,-97.5696,0.0,25.3,1111122 
TCOON,ioos:station:TCOON:042:1,2015-01-13T05:30:00Z,27.8888,-97.5696,0.0,25.5,1111122 
TCOON,ioos:station:TCOON:042:1,2015-01-13T06:30:00Z,27.8888,-97.5696,0.0,25.9,1111122 
TCOON,ioos:station:TCOON:042:1,2015-01-13T07:30:00Z,27.8888,-97.5696,0.0,25.7,1111122 
TCOON,ioos:station:TCOON:042:1,2015-01-13T08:30:00Z,27.8888,-97.5696,0.0,25.8,1111122 
TCOON,ioos:station:TCOON:042:1,2015-01-13T09:30:00Z,27.8888,-97.5696,0.0,25.5,1111122 
TCOON,ioos:station:TCOON:042:1,2015-01-13T10:30:00Z,27.8888,-97.5696,0.0,25.0,1111122 
TCOON,ioos:station:TCOON:042:1,2015-01-13T11:30:00Z,27.8888,-97.5696,0.0,24.2,1111122 
TCOON,ioos:station:TCOON:042:1,2015-01-13T12:30:00Z,27.8888,-97.5696,0.0,24.8,1111122 
TCOON,ioos:station:TCOON:042:1,2015-01-13T13:30:00Z,27.8888,-97.5696,0.0,23.9,1111122 
TCOON,ioos:station:TCOON:042:1,2015-01-13T14:30:00Z,27.8888,-97.5696,0.0,23.6,1111122 
TCOON,ioos:station:TCOON:042:1,2015-01-13T15:30:00Z,27.8888,-97.5696,0.0,23.5,1111122 
TCOON,ioos:station:TCOON:042:1,2015-01-13T16:30:00Z,27.8888,-97.5696,0.0,15.9,1111122 
TCOON,ioos:station:TCOON:042:1,2015-01-13T17:30:00Z,27.8888,-97.5696,0.0,24.5,1111122 
TCOON,ioos:station:TCOON:042:1,2015-01-13T18:30:00Z,27.8888,-97.5696,0.0,24.4,1111122 
TCOON,ioos:station:TCOON:042:1,2015-01-13T19:30:00Z,27.8888,-97.5696,0.0,23.4,1111122 
TCOON,ioos:station:TCOON:042:1,2015-01-13T20:30:00Z,27.8888,-97.5696,0.0,23.1,1111122 
TCOON,ioos:station:TCOON:042:1,2015-01-13T21:30:00Z,27.8888,-97.5696,0.0,23.1,1111122 
TCOON,ioos:station:TCOON:042:1,2015-01-13T22:30:00Z,27.8888,-97.5696,0.0,23.1,1111122 
TCOON,ioos:station:TCOON:042:1,2015-01-13T23:30:00Z,27.8888,-97.5696,0.0,23.0,1111122 
TCOON,ioos:station:TCOON:042:1,2015-01-14T00:30:00Z,27.8888,-97.5696,0.0,22.9,1111122 
TCOON,ioos:station:TCOON:042:1,2015-01-14T01:30:00Z,27.8888,-97.5696,0.0,23.1,1111122 
TCOON,ioos:station:TCOON:042:1,2015-01-14T02:30:00Z,27.8888,-97.5696,0.0,22.4,1111122 
TCOON,ioos:station:TCOON:042:1,2015-01-14T03:30:00Z,27.8888,-97.5696,0.0,22.2,1111122 
TCOON,ioos:station:TCOON:042:1,2015-01-14T04:30:00Z,27.8888,-97.5696,0.0,22.7,1111122 
TCOON,ioos:station:TCOON:042:1,2015-01-14T05:30:00Z,27.8888,-97.5696,0.0,23.8,1111122 
TCOON,ioos:station:TCOON:042:1,2015-01-14T06:30:00Z,27.8888,-97.5696,0.0,24.6,1111122 
TCOON,ioos:station:TCOON:042:1,2015-01-14T07:30:00Z,27.8888,-97.5696,0.0,25.1,1111122 
TCOON,ioos:station:TCOON:042:1,2015-01-14T08:30:00Z,27.8888,-97.5696,0.0,24.9,1111122 
TCOON,ioos:station:TCOON:042:1,2015-01-14T09:30:00Z,27.8888,-97.5696,0.0,25.0,1111122 
TCOON,ioos:station:TCOON:042:1,2015-01-14T10:30:00Z,27.8888,-97.5696,0.0,24.7,1111122 
TCOON,ioos:station:TCOON:042:1,2015-01-14T11:30:00Z,27.8888,-97.5696,0.0,24.0,1111122 
TCOON,ioos:station:TCOON:042:1,2015-01-14T12:30:00Z,27.8888,-97.5696,0.0,23.6,1111122 
TCOON,ioos:station:TCOON:042:1,2015-01-14T13:30:00Z,27.8888,-97.5696,0.0,23.7,1111122 
TCOON,ioos:station:TCOON:042:1,2015-01-14T14:30:00Z,27.8888,-97.5696,0.0,13.6,1111122 
TCOON,ioos:station:TCOON:042:1,2015-01-14T15:30:00Z,27.8888,-97.5696,0.0,14.7,1111122 
TCOON,ioos:station:TCOON:042:1,2015-01-14T16:30:00Z,27.8888,-97.5696,0.0,13.7,1111122 
TCOON,ioos:station:TCOON:042:1,2015-01-14T17:30:00Z,27.8888,-97.5696,0.0,22.5,1111122 
TCOON,ioos:station:TCOON:042:1,2015-01-14T18:30:00Z,27.8888,-97.5696,0.0,20.0,1111122 
TCOON,ioos:station:TCOON:042:1,2015-01-14T19:30:00Z,27.8888,-97.5696,0.0,19.7,1111122 
TCOON,ioos:station:TCOON:042:1,2015-01-14T20:30:00Z,27.8888,-97.5696,0.0,13.7,1111122 
TCOON,ioos:station:TCOON:042:1,2015-01-14T21:30:00Z,27.8888,-97.5696,0.0,17.6,1111122 
TCOON,ioos:station:TCOON:042:1,2015-01-14T22:30:00Z,27.8888,-97.5696,0.0,19.8,1111122 
TCOON,ioos:station:TCOON:042:1,2015-01-14T23:30:00Z,27.8888,-97.5696,0.0,19.6,1111122 
TCOON,ioos:station:TCOON:042:1,2015-01-15T00:30:00Z,27.8888,-97.5696,0.0,17.3,1111122 
TCOON,ioos:station:TCOON:042:1,2015-01-15T01:30:00Z,27.8888,-97.5696,0.0,17.1,1111122 
TCOON,ioos:station:TCOON:042:1,2015-01-15T02:30:00Z,27.8888,-97.5696,0.0,17.5,1111122 
TCOON,ioos:station:TCOON:042:1,2015-01-15T03:30:00Z,27.8888,-97.5696,0.0,17.8,1111122 
TCOON,ioos:station:TCOON:042:1,2015-01-15T04:30:00Z,27.8888,-97.5696,0.0,18.6,1111122 
TCOON,ioos:station:TCOON:042:1,2015-01-15T05:30:00Z,27.8888,-97.5696,0.0,20.2,1111122 
TCOON,ioos:station:TCOON:042:1,2015-01-15T06:30:00Z,27.8888,-97.5696,0.0,18.3,1111122 
TCOON,ioos:station:TCOON:042:1,2015-01-15T07:30:00Z,27.8888,-97.5696,0.0,18.2,1111122 
TCOON,ioos:station:TCOON:042:1,2015-01-15T08:30:00Z,27.8888,-97.5696,0.0,13.6,1111122 
TCOON,ioos:station:TCOON:042:1,2015-01-15T09:30:00Z,27.8888,-97.5696,0.0,11.5,1111122 
TCOON,ioos:station:TCOON:042:1,2015-01-15T10:30:00Z,27.8888,-97.5696,0.0,13.0,1111122 
TCOON,ioos:station:TCOON:042:1,2015-01-15T11:30:00Z,27.8888,-97.5696,0.0,11.6,1111122 
TCOON,ioos:station:TCOON:042:1,2015-01-15T12:30:00Z,27.8888,-97.5696,0.0,12.5,1111122 
TCOON,ioos:station:TCOON:042:1,2015-01-15T13:30:00Z,27.8888,-97.5696,0.0,11.2,1111122 
TCOON,ioos:station:TCOON:042:1,2015-01-15T14:30:00Z,27.8888,-97.5696,0.0,11.2,1111122 
TCOON,ioos:station:TCOON:042:1,2015-01-15T15:30:00Z,27.8888,-97.5696,0.0,11.7,1111122 
TCOON,ioos:station:TCOON:042:1,2015-01-15T16:30:00Z,27.8888,-97.5696,0.0,10.7,1111122 
TCOON,ioos:station:TCOON:042:1,2015-01-15T17:30:00Z,27.8888,-97.5696,0.0,8.4,1111122 
TCOON,ioos:station:TCOON:042:1,2015-01-15T18:30:00Z,27.8888,-97.5696,0.0,10.6,1111122 
TCOON,ioos:station:TCOON:042:1,2015-01-15T19:30:00Z,27.8888,-97.5696,0.0,10.6,1111122 
TCOON,ioos:station:TCOON:042:1,2015-01-15T20:30:00Z,27.8888,-97.5696,0.0,22.0,1111122 
TCOON,ioos:station:TCOON:042:1,2015-01-15T21:30:00Z,27.8888,-97.5696,0.0,22.5,1111122 
TCOON,ioos:station:TCOON:042:1,2015-01-15T22:30:00Z,27.8888,-97.5696,0.0,22.7,1111122 
TCOON,ioos:station:TCOON:042:1,2015-01-15T23:30:00Z,27.8888,-97.5696,0.0,22.1,1111122 
TCOON,ioos:station:TCOON:042:1,2015-01-16T00:30:00Z,27.8888,-97.5696,0.0,23.0,1111122 
TCOON,ioos:station:TCOON:042:1,2015-01-16T01:30:00Z,27.8888,-97.5696,0.0,23.0,1111122 
TCOON,ioos:station:TCOON:042:1,2015-01-16T02:30:00Z,27.8888,-97.5696,0.0,22.6,1111122 
TCOON,ioos:station:TCOON:042:1,2015-01-16T03:30:00Z,27.8888,-97.5696,0.0,22.0,1111122 
TCOON,ioos:station:TCOON:042:1,2015-01-16T04:30:00Z,27.8888,-97.5696,0.0,21.4,1111122 
TCOON,ioos:station:TCOON:042:1,2015-01-16T05:30:00Z,27.8888,-97.5696,0.0,21.6,1111122 
TCOON,ioos:station:TCOON:042:1,2015-01-16T07:00:00Z,27.8888,-97.5696,0.0,21.2,1111122 
TCOON,ioos:station:TCOON:042:1,2015-01-16T07:30:00Z,27.8888,-97.5696,0.0,21.7,1111122 
TCOON,ioos:station:TCOON:042:1,2015-01-16T08:30:00Z,27.8888,-97.5696,0.0,23.8,1111122 
TCOON,ioos:station:TCOON:042:1,2015-01-16T09:30:00Z,27.8888,-97.5696,0.0,25.0,1111122 
TCOON,ioos:station:TCOON:042:1,2015-01-16T10:30:00Z,27.8888,-97.5696,0.0,24.9,1111122 
TCOON,ioos:station:TCOON:042:1,2015-01-16T11:30:00Z,27.8888,-97.5696,0.0,25.1,1111122 
TCOON,ioos:station:TCOON:042:1,2015-01-16T12:30:00Z,27.8888,-97.5696,0.0,24.9,1111122 
TCOON,ioos:station:TCOON:042:1,2015-01-16T13:30:00Z,27.8888,-97.5696,0.0,24.8,1111122 
TCOON,ioos:station:TCOON:042:1,2015-01-16T14:30:00Z,27.8888,-97.5696,0.0,24.5,1111122 
TCOON,ioos:station:TCOON:042:1,2015-01-16T15:30:00Z,27.8888,-97.5696,0.0,24.9,1111122 